Theta_e
326 321 317 322 323 314 310 306 296 296 288 289 287 287 289 293 293 294 295 296 295 298 300 303 301 302 302 301 304 309 312 299 298 292 291 305 329 336 338 340 341 341 341 342 342 343 345 347 349 350 350 349 349 348 347 347 347 347 347 347 346 345 344 344 344 342 341 341 341 341 340 339 339 340 339 341 345 346 346 345 344 343 341 341 341 339 340 338 340 340 342 342 341 343 343 343 340
323 318 316 320 318 309 307 302 292 288 285 285 289 287 292 293 293 292 294 294 296 300 299 305 309 310 310 311 313 310 305 318 317 310 323 330 334 335 339 341 341 340 341 342 342 342 343 346 349 350 350 350 349 348 347 347 347 347 347 346 346 345 345 344 343 343 341 341 341 340 340 340 339 339 341 341 342 343 343 342 342 342 341 341 339 337 337 338 339 340 341 341 343 343 343 342 339
322 317 314 313 313 308 305 301 295 284 284 282 285 287 293 293 293 294 295 297 298 299 300 303 303 302 303 305 306 303 299 323 325 325 325 333 330 333 340 342 341 341 342 343 342 342 343 345 346 350 350 350 349 348 347 347 347 347 347 346 345 344 343 343 343 343 342 341 340 341 339 339 339 339 339 339 337 338 339 340 339 339 340 340 338 337 339 339 339 341 340 342 342 341 342 342 339
317 318 316 310 308 305 299 293 289 286 286 282 286 291 293 293 294 295 296 298 299 298 300 302 299 302 306 307 310 315 313 318 323 325 326 330 330 337 340 342 341 342 342 343 343 341 342 344 346 349 350 349 349 348 347 347 347 347 346 346 345 344 343 343 343 343 342 342 340 340 340 340 339 342 343 345 346 346 346 344 342 341 337 337 337 337 338 339 340 340 341 341 341 341 342 342 341
317 320 315 307 305 302 298 293 287 283 284 283 285 288 294 294 296 296 298 298 298 298 300 300 298 302 307 308 307 304 307 317 326 326 326 328 338 339 341 341 341 341 341 343 343 342 342 343 346 348 349 350 349 348 347 347 347 347 346 346 345 345 344 343 343 343 342 342 342 341 341 340 340 341 344 346 346 345 344 343 343 340 338 338 338 338 338 339 340 340 341 340 342 341 341 342 342
314 314 316 311 305 306 296 289 289 286 286 287 287 292 294 296 297 295 298 298 299 297 298 297 299 299 307 310 310 311 318 317 323 326 326 330 338 341 341 340 340 341 342 342 341 341 343 342 345 348 349 349 349 348 347 347 347 347 346 346 345 345 344 343 343 343 342 342 342 341 340 338 337 339 343 344 344 344 344 342 342 340 339 338 338 337 338 339 340 340 340 340 340 340 340 341 341
313 308 307 304 305 300 293 286 287 285 292 291 292 294 296 295 296 296 296 298 299 298 298 301 304 303 305 309 309 316 319 322 325 326 327 333 337 340 340 340 340 340 341 341 341 343 343 343 348 349 348 349 349 348 347 347 347 346 346 346 345 344 343 342 342 342 342 342 341 341 340 339 340 344 343 344 343 343 343 342 341 339 338 337 337 336 337 339 340 339 339 339 340 340 340 340 340
314 307 306 298 295 294 289 287 288 286 293 294 295 297 295 296 295 296 295 295 297 297 299 300 300 297 298 308 305 315 324 327 326 328 331 334 337 338 339 340 340 340 341 341 342 343 345 342 347 348 348 349 348 348 347 347 347 346 346 346 346 344 343 342 342 342 342 342 341 341 340 339 339 343 342 342 341 341 341 340 340 339 337 337 337 336 336 338 339 339 338 339 338 339 338 339 339
309 307 303 296 294 290 285 288 290 289 293 295 296 299 302 297 295 295 295 295 296 296 298 298 297 297 298 307 306 312 321 327 329 332 333 335 336 337 339 340 340 340 341 342 343 344 344 341 345 347 347 348 349 348 348 347 347 346 346 346 345 343 342 342 341 341 342 342 341 341 340 339 338 338 338 339 342 341 340 340 340 339 337 337 337 336 336 336 338 337 337 337 337 337 337 337 338
306 304 297 295 292 288 284 288 287 291 293 295 296 297 297 295 295 295 294 295 296 296 299 298 297 297 301 306 308 314 320 327 330 331 332 335 336 337 339 340 341 341 342 343 344 344 343 345 342 345 345 347 348 348 348 347 346 346 346 345 345 344 342 342 342 342 341 341 341 340 340 339 338 338 338 339 340 339 339 339 338 337 335 336 335 335 336 337 337 337 336 336 336 336 336 336 336
299 300 300 296 287 286 286 286 289 292 294 294 296 298 298 295 295 294 295 295 297 297 299 299 302 301 302 303 305 311 319 326 329 329 331 334 334 336 339 341 342 342 341 342 344 344 343 343 343 341 343 345 346 347 347 347 347 346 345 345 344 343 342 341 341 341 341 341 340 340 340 339 338 337 337 338 337 337 337 336 336 336 335 335 335 335 334 335 335 336 336 335 335 335 335 335 335
300 296 299 288 287 287 286 288 289 291 293 294 295 296 295 295 294 294 295 297 296 296 297 298 300 302 301 302 303 316 323 325 327 329 330 332 332 335 340 341 341 341 342 343 343 344 344 342 342 342 339 342 342 345 345 345 346 346 345 345 344 343 342 341 341 341 341 340 340 339 339 338 338 337 336 335 335 335 335 335 334 334 334 334 334 333 333 334 335 335 334 334 334 334 334 334 333
298 296 290 289 290 287 287 288 288 290 291 293 295 297 294 296 296 296 296 296 295 295 298 297 301 301 298 300 302 315 321 324 326 326 328 330 330 333 339 341 340 340 341 342 342 342 343 343 342 342 338 336 337 339 340 342 344 345 345 345 344 342 341 340 340 341 340 340 339 339 338 338 338 337 336 335 335 335 334 333 333 333 333 332 333 332 332 333 334 333 333 333 333 333 333 333 333
300 301 294 295 288 287 287 287 287 288 287 291 292 297 295 296 295 295 295 295 294 295 298 298 301 302 301 304 307 313 319 323 325 326 327 329 332 334 337 340 339 339 339 341 341 341 341 342 342 341 339 338 339 336 335 338 341 343 343 343 342 341 341 340 340 340 340 340 339 337 337 336 337 336 335 335 334 334 333 333 332 331 331 331 331 331 331 333 333 332 331 332 333 332 333 333 332
305 302 294 291 288 288 288 287 290 285 289 290 297 296 295 298 293 293 297 294 294 296 301 301 303 301 297 304 300 312 319 323 326 326 327 330 332 333 336 339 338 338 338 339 340 340 340 340 340 339 339 339 338 337 338 337 336 339 340 340 340 340 339 337 337 338 336 336 336 334 333 332 331 332 332 332 333 332 331 330 332 332 331 331 330 330 331 331 331 329 330 331 332 331 331 330 330
304 297 292 294 289 287 289 289 288 287 291 292 296 293 294 297 295 296 296 295 298 300 299 298 300 298 298 303 299 313 319 323 326 325 327 328 328 329 335 337 337 338 337 337 338 339 340 338 338 338 339 338 337 337 338 338 334 334 337 338 338 337 336 335 334 333 330 328 328 328 326 327 325 325 324 326 327 329 328 327 330 331 330 330 330 330 329 330 329 328 328 328 328 328 328 327 327
301 297 296 286 290 288 290 289 288 289 290 292 295 295 294 295 297 300 297 298 300 297 298 301 299 310 302 303 305 316 323 325 324 325 325 325 327 327 331 334 335 336 337 336 337 338 339 338 337 338 339 338 338 338 338 338 335 332 333 332 332 333 332 331 330 325 322 321 322 321 322 324 323 322 321 321 321 323 321 324 328 330 330 328 328 329 328 327 327 326 325 324 323 322 320 321 321
299 295 289 289 287 288 291 290 290 292 294 293 294 294 293 293 295 298 298 297 294 295 297 298 314 314 314 315 315 323 325 324 324 324 323 322 323 326 329 331 334 334 335 336 337 338 337 337 337 338 338 338 338 338 338 338 335 335 335 334 334 331 328 325 324 324 324 322 321 322 323 322 322 320 320 322 321 322 322 322 324 327 328 328 328 327 326 325 325 325 324 323 321 319 315 310 312
294 289 288 290 287 292 293 293 291 293 294 296 295 292 295 294 294 297 295 294 295 295 295 302 309 313 316 318 320 323 323 323 323 324 323 322 323 326 329 329 332 333 334 335 337 338 337 337 337 337 338 338 338 338 338 337 337 337 336 335 335 329 326 324 323 322 322 322 321 321 321 321 320 319 319 320 320 319 321 321 323 326 328 327 327 326 324 323 323 323 322 320 318 314 309 308 309
295 293 290 287 290 293 293 294 295 293 295 295 294 293 293 295 295 297 294 292 293 294 294 295 305 309 312 314 318 320 322 322 323 322 323 323 324 326 327 328 330 332 334 336 336 338 337 335 336 337 337 338 338 338 338 336 338 338 337 337 335 331 326 324 322 321 321 320 320 320 320 320 319 318 320 320 319 319 319 320 321 322 323 320 314 314 319 321 321 319 317 315 312 308 307 307 308
295 292 287 293 292 293 296 294 294 293 295 295 294 293 293 294 295 295 291 293 292 292 294 298 298 308 314 315 317 318 320 320 321 321 321 322 322 324 327 329 331 331 333 334 335 337 337 336 334 335 336 337 338 338 337 336 338 338 338 337 335 332 328 325 322 320 320 319 319 319 319 318 318 317 317 316 316 315 314 315 316 315 312 307 309 304 304 306 306 305 306 307 305 306 306 306 307
291 293 292 291 292 294 295 294 293 293 292 294 291 294 293 295 296 292 293 291 290 294 296 297 299 314 316 315 317 317 318 319 320 319 320 321 321 322 322 322 322 325 326 331 334 336 337 337 335 335 336 337 337 337 338 336 337 337 337 337 335 333 330 326 323 320 319 319 319 319 318 317 317 316 315 314 313 313 312 311 310 309 306 305 305 302 302 303 303 304 304 304 304 304 304 305 305
293 292 292 292 293 295 295 295 292 292 293 292 292 294 295 295 295 292 292 292 291 293 295 298 298 315 319 319 317 316 317 318 318 319 319 319 320 321 323 324 325 327 327 331 333 335 337 337 337 335 336 336 337 336 338 337 338 338 338 337 336 334 332 328 324 321 320 320 320 318 317 316 316 315 314 313 311 311 310 309 307 306 304 304 303 302 301 302 303 303 303 303 303 303 303 303 304
289 291 292 295 293 295 294 296 291 291 294 294 294 295 295 293 295 294 292 292 292 295 297 295 296 313 317 316 316 317 317 317 318 320 320 320 320 321 322 323 325 325 324 328 329 331 332 335 337 336 336 337 337 337 337 337 338 338 338 335 336 334 333 330 325 322 322 322 322 318 317 317 316 315 313 312 310 308 308 308 306 304 304 304 302 301 301 301 301 302 302 301 302 302 302 301 302
292 293 292 294 293 294 292 291 291 292 293 293 294 295 294 292 294 293 294 295 295 295 298 298 301 313 315 316 315 315 316 316 317 318 318 318 319 319 316 320 322 321 324 326 327 329 330 332 334 335 336 337 338 338 337 337 338 338 337 336 337 331 335 333 329 324 322 323 325 319 317 316 315 315 313 311 309 307 306 306 305 303 304 302 301 300 301 300 300 301 300 300 300 300 300 300 300
293 294 292 293 294 294 293 293 292 293 294 293 294 294 293 292 293 294 295 294 295 296 299 300 305 311 312 314 315 314 314 315 316 316 318 318 316 317 318 320 322 322 324 326 326 328 329 330 332 333 334 335 337 338 337 337 338 337 337 336 337 333 336 336 333 327 323 324 327 320 318 317 316 315 313 311 308 306 306 305 304 304 304 301 300 299 299 300 299 299 299 299 299 299 300 300 300
292 292 292 293 294 294 294 295 294 293 294 293 294 292 293 293 294 290 290 295 294 297 298 299 303 307 309 311 313 314 314 314 314 317 314 314 314 317 319 319 321 323 323 322 325 327 327 328 330 332 333 331 335 335 335 336 337 337 337 337 337 335 336 336 334 331 326 325 329 322 320 318 317 316 314 311 308 306 305 304 303 305 303 300 300 299 299 299 299 299 299 299 299 299 299 300 299
294 293 292 293 292 295 293 293 294 293 295 291 292 293 292 293 294 293 295 294 295 297 296 298 298 302 305 307 310 310 312 314 314 311 314 314 316 317 318 319 321 322 322 322 324 326 326 327 330 331 332 329 331 333 332 333 335 337 336 337 337 336 336 335 335 334 328 327 331 325 322 319 317 317 315 312 309 307 306 304 304 305 301 299 299 298 298 298 299 299 299 299 298 298 298 298 298
294 293 291 292 289 293 294 293 294 294 295 294 294 291 290 292 290 296 294 294 293 295 295 296 297 298 301 303 306 306 308 310 310 311 313 316 318 319 319 321 322 322 323 324 324 323 324 326 328 330 331 328 329 331 330 332 333 334 335 336 336 336 335 335 334 334 333 330 331 328 324 321 319 318 316 312 310 308 306 305 306 305 300 299 298 297 297 297 298 299 298 299 298 297 296 296 297
293 291 290 289 287 287 292 293 293 294 294 293 292 284 283 286 294 295 293 295 292 293 293 294 296 296 297 298 301 304 304 304 307 311 312 314 316 318 319 321 321 322 323 322 322 322 324 325 327 330 330 328 327 330 328 328 330 331 332 333 333 334 335 335 334 334 333 334 332 330 326 322 320 321 317 314 311 309 306 306 308 304 300 299 298 298 298 298 298 297 296 296 297 296 296 296 294
291 291 288 285 285 287 290 293 293 293 295 292 292 285 283 285 286 291 291 294 294 293 293 293 294 295 294 295 297 300 302 304 306 309 311 312 313 316 318 320 320 321 320 320 321 323 322 324 326 328 327 328 325 326 325 326 326 328 329 331 332 332 333 334 334 335 334 333 333 332 329 324 322 323 319 316 313 309 306 307 308 304 300 299 298 298 298 298 298 296 296 296 296 296 295 294 293
287 288 284 283 285 284 289 293 291 291 294 292 290 284 285 288 290 291 291 294 293 293 292 292 293 294 295 295 296 297 299 300 303 306 309 311 312 313 315 318 319 320 321 321 322 321 322 323 323 326 325 326 325 325 324 324 323 324 326 325 329 331 332 333 333 333 334 333 332 332 331 327 324 325 322 319 316 310 307 308 308 303 300 299 299 299 300 299 297 297 297 297 295 293 293 292 291
284 284 282 285 283 286 289 295 292 292 294 293 291 285 285 290 292 294 292 295 293 292 291 291 293 294 295 295 296 297 297 296 297 300 304 309 311 313 314 316 318 320 321 321 321 320 321 321 321 323 323 325 325 324 322 321 321 320 322 324 326 328 331 332 332 332 332 332 332 331 332 329 326 326 323 321 317 312 309 309 307 302 300 299 299 299 300 299 298 297 295 296 296 293 292 290 289
288 284 284 283 284 286 285 288 291 291 293 291 291 289 286 288 289 289 291 294 294 293 293 293 294 295 295 295 295 296 297 297 298 299 301 305 310 311 314 314 317 319 320 321 321 321 321 321 321 322 322 323 324 323 321 320 319 319 317 318 320 326 328 329 330 330 331 331 331 331 331 330 328 327 325 322 318 314 312 309 305 301 300 299 299 299 299 299 298 296 295 295 295 293 291 289 288
282 284 285 286 285 285 285 287 291 293 290 291 288 288 290 292 293 293 294 292 294 293 295 295 295 295 295 295 295 295 296 297 299 300 301 302 306 310 312 313 314 317 320 320 320 321 320 320 320 319 320 320 321 320 318 318 315 315 313 314 313 319 323 325 326 327 329 330 330 330 330 330 328 329 326 322 318 314 311 308 304 301 300 299 298 297 298 297 296 296 295 294 295 293 292 290 289
286 286 283 282 284 286 285 286 289 292 290 289 287 289 290 292 292 293 293 291 292 294 294 294 294 294 294 294 295 295 296 297 300 300 300 301 304 308 311 312 313 316 318 318 318 318 319 318 318 318 318 319 317 316 315 315 313 313 313 308 310 310 317 320 321 324 325 326 327 328 329 330 329 328 327 323 318 313 310 307 303 301 300 299 297 296 297 297 296 296 295 294 292 292 292 290 289
286 286 283 284 283 287 289 289 292 289 289 288 289 288 287 289 291 292 293 291 290 291 292 294 294 295 295 295 295 296 296 298 300 300 300 301 302 305 309 310 311 311 315 316 317 317 318 318 317 317 317 316 316 315 314 315 315 310 309 313 315 311 312 314 317 319 320 322 323 325 326 328 329 328 325 323 318 312 310 307 303 301 300 299 298 297 297 297 297 296 296 293 291 290 289 289 289
288 284 284 285 284 286 288 290 290 289 289 283 284 285 287 289 290 291 292 289 290 291 292 292 294 295 295 295 296 296 297 294 296 297 299 298 299 302 306 308 307 309 311 314 316 317 317 315 316 317 313 314 316 317 316 315 316 317 317 315 310 307 308 312 315 315 317 317 319 321 322 326 327 326 322 322 317 313 310 306 303 301 300 299 298 298 297 297 296 295 294 292 292 290 288 289 288
284 285 283 284 286 286 290 288 289 290 288 287 283 286 289 290 290 291 291 292 294 293 293 294 294 294 294 295 295 296 295 296 294 296 297 297 299 301 305 307 308 311 312 314 315 314 313 313 314 314 313 314 314 315 314 314 309 308 311 304 309 302 299 300 306 307 313 314 314 316 318 320 323 323 322 320 317 313 310 306 304 302 301 300 298 297 297 296 295 294 293 292 290 290 289 290 289
284 283 285 283 283 286 285 285 288 290 289 287 285 287 290 291 290 291 294 293 293 292 291 292 293 294 294 295 295 295 295 295 296 297 297 296 297 300 302 305 308 308 308 308 311 313 313 312 312 313 312 312 311 310 310 306 306 302 302 303 302 301 304 298 300 304 309 311 314 314 314 317 319 321 321 319 317 314 311 307 305 303 302 301 299 296 296 295 295 294 293 293 291 287 288 288 290
284 281 281 282 287 287 285 289 288 285 288 286 285 285 286 282 284 285 287 288 291 292 292 292 293 293 295 294 293 293 294 295 296 296 294 297 299 301 304 306 305 307 308 310 311 313 314 312 312 312 311 311 309 307 307 305 305 303 302 302 301 301 301 301 302 303 308 311 312 311 313 314 317 318 319 319 315 314 311 309 306 304 302 301 300 298 296 296 295 294 294 293 291 290 288 287 289
284 284 286 287 286 288 289 284 286 279 280 281 286 279 276 279 282 283 287 286 288 287 289 292 292 293 293 294 295 294 294 294 295 296 295 298 300 301 300 301 304 306 307 309 311 312 312 311 310 309 308 308 307 306 306 306 307 306 304 304 303 302 303 299 304 307 305 308 311 311 309 311 314 315 317 318 316 314 312 310 307 305 303 301 300 298 297 296 295 294 294 293 292 291 289 287 287
283 286 287 287 287 287 286 287 284 279 279 285 284 280 278 280 285 287 289 289 290 290 287 290 291 291 291 293 292 293 295 295 293 294 296 298 299 299 299 301 303 305 307 306 306 308 309 309 308 308 308 307 306 306 306 306 305 305 306 307 307 306 306 304 302 301 303 302 305 308 310 309 311 314 314 316 316 314 312 310 308 305 303 302 300 299 297 296 296 294 294 294 292 292 290 287 287
283 285 287 287 288 287 286 282 284 279 279 282 282 278 277 281 284 285 285 285 286 288 290 290 291 293 291 291 292 293 295 293 294 295 296 299 300 301 302 302 303 305 304 303 305 305 307 307 306 306 306 306 306 306 306 307 307 305 305 305 304 304 304 303 302 302 300 301 301 304 307 308 309 311 313 314 315 313 312 310 308 306 304 302 300 300 298 297 296 296 295 295 294 292 291 289 288
284 287 288 286 287 286 283 282 281 282 282 281 277 283 282 277 283 285 284 284 284 287 289 290 291 291 289 290 291 293 293 293 294 296 297 298 300 300 301 301 301 301 302 304 305 306 306 305 306 305 306 305 305 305 305 305 306 305 305 304 303 302 302 302 300 302 300 300 300 301 305 307 307 308 311 312 313 313 310 310 308 306 304 302 300 300 299 298 296 295 294 294 293 292 291 291 289
290 288 288 287 286 284 281 280 285 278 278 275 279 282 277 278 279 282 280 285 285 287 289 290 291 290 288 289 290 291 291 292 293 295 295 297 299 299 300 300 299 302 301 302 302 302 303 303 304 304 304 304 304 304 304 304 304 303 303 302 302 301 300 300 300 301 301 299 301 301 304 305 306 306 307 310 312 312 310 309 308 306 304 303 299 301 299 298 297 296 295 294 294 292 291 291 290
290 288 288 284 282 281 279 278 276 278 274 275 279 282 280 277 279 281 284 285 285 286 286 286 286 286 288 290 289 293 294 294 294 294 293 294 295 297 297 300 300 298 298 299 301 302 302 303 304 304 304 303 303 303 303 303 303 303 303 303 302 302 300 301 300 300 300 299 302 304 303 304 304 305 305 306 310 311 311 308 308 307 305 302 300 301 300 298 297 296 296 295 294 293 291 292 290
289 285 279 280 281 279 277 273 276 274 269 274 277 281 281 275 276 280 284 285 285 288 288 287 289 289 289 292 292 294 294 294 294 294 295 294 296 296 296 298 297 298 298 298 299 299 301 302 303 303 301 302 302 303 302 303 303 302 302 303 302 302 301 301 301 301 300 301 302 304 303 302 302 303 303 305 306 309 309 309 308 307 305 303 301 301 301 299 298 298 296 295 294 294 292 291 291
286 283 283 277 273 271 273 268 275 271 272 279 279 281 281 282 282 286 286 287 289 287 288 288 290 289 288 293 294 293 291 293 294 294 294 295 295 295 296 297 296 297 299 299 300 300 300 301 302 302 301 300 301 302 302 302 302 302 302 302 302 302 301 302 302 301 300 301 302 302 301 301 301 301 302 303 305 307 308 308 307 306 305 303 302 301 300 300 298 298 297 295 295 293 292 292 291
283 285 279 275 271 270 266 262 265 268 274 278 281 283 281 280 283 289 291 292 290 288 287 289 288 288 292 294 294 293 292 292 292 292 292 292 293 294 296 297 297 296 297 300 300 300 300 300 300 301 302 300 300 300 301 301 301 302 302 302 303 302 301 302 302 302 300 301 301 301 301 301 301 301 302 302 305 306 307 308 307 306 306 304 302 301 300 299 298 297 296 296 295 294 293 292 292
285 282 284 279 271 268 266 265 271 272 272 276 278 277 276 278 283 287 289 290 289 290 290 287 286 288 289 291 292 291 291 291 291 291 294 294 295 294 297 296 295 296 298 299 299 299 298 299 300 300 300 299 299 300 300 301 301 301 301 302 302 302 302 302 303 302 301 300 300 300 301 301 302 302 302 303 303 304 306 307 307 306 305 303 302 301 300 298 298 297 296 296 295 294 293 293 292
283 281 281 278 277 275 275 268 270 269 271 272 276 278 278 283 284 286 287 288 289 289 287 286 288 289 288 290 293 294 293 294 293 293 293 293 294 294 294 294 295 297 298 298 299 298 299 300 299 300 301 300 299 298 299 300 301 301 300 301 301 301 301 301 301 301 301 301 301 302 302 301 302 302 302 303 303 304 305 306 306 306 305 303 302 301 300 298 298 297 296 296 295 295 294 293 292
282 284 279 281 281 279 272 272 276 273 271 276 272 279 282 281 284 289 290 287 289 287 287 286 287 288 287 290 292 290 292 293 293 294 294 295 294 294 295 294 295 296 297 299 300 300 300 300 300 300 300 298 298 298 299 299 299 299 299 300 301 300 301 301 301 301 301 301 302 303 302 302 301 301 302 302 303 303 305 306 306 305 305 304 302 301 300 299 298 297 296 296 295 295 294 293 292
285 281 282 284 285 282 278 273 267 266 271 273 274 277 279 277 279 281 282 286 287 289 289 287 287 287 288 293 295 292 292 292 293 294 294 295 296 296 295 296 296 298 298 298 299 300 300 301 300 300 299 299 299 298 298 298 298 298 299 299 300 301 301 301 301 301 300 301 302 302 302 301 301 300 301 301 301 301 302 302 305 304 304 303 302 301 300 299 298 297 297 296 296 295 294 293 292
283 281 284 285 278 278 278 272 271 267 266 269 273 274 276 280 282 284 284 284 286 289 289 287 289 290 292 293 293 291 290 290 290 292 294 296 297 297 296 297 297 297 297 298 299 300 300 299 300 300 301 301 300 299 298 298 298 299 299 299 299 300 301 301 301 301 300 301 301 301 301 301 300 299 299 299 299 299 300 301 302 302 302 302 301 300 300 299 298 297 296 295 295 294 293 292 292
288 288 287 284 281 276 276 278 272 274 269 265 271 271 280 281 281 284 286 283 284 286 285 286 290 292 292 291 291 292 291 291 292 292 294 296 297 297 297 297 297 297 297 297 299 299 300 300 299 299 299 298 298 298 298 298 297 298 298 297 298 299 300 300 300 300 300 300 301 301 300 300 299 298 298 298 298 298 298 298 298 299 299 300 299 299 299 298 297 296 296 295 294 293 292 291 291
285 285 282 285 283 283 279 279 275 275 265 264 268 272 278 279 283 285 287 287 286 287 290 290 290 291 291 290 291 291 290 291 292 293 294 295 295 296 296 296 296 294 294 296 298 299 300 299 299 299 299 298 298 298 297 298 297 297 296 296 297 297 298 299 298 299 300 300 301 300 300 300 298 297 297 296 296 297 297 298 297 297 298 297 297 296 295 296 295 294 294 294 293 292 292 291 290
289 288 285 287 282 278 275 276 279 272 274 272 265 275 282 282 286 286 285 289 289 288 288 289 288 290 290 291 291 289 291 291 292 292 293 295 294 293 293 292 291 292 295 296 298 297 297 298 299 298 298 299 298 298 297 297 296 296 296 296 296 296 297 297 297 297 297 298 299 299 299 297 296 296 296 296 296 296 296 297 297 297 296 297 296 298 295 295 294 294 293 293 292 291 291 291 289
Wind_Speed
4 3 2 1 3 3 3 4 2 2 3 1 1 1 2 0 1 3 0 1 3 2 1 2 3 3 1 3 9 5 1 2 2 5 3 2 3 10 9 7 10 9 8 6 4 4 5 9 11 12 14 14 13 13 13 13 14 13 13 14 13 13 14 14 15 15 15 15 15 15 16 15 16 16 16 17 17 17 17 17 19 20 19 19 20 19 19 21 20 20 19 19 18 17 18 18 19
2 4 1 1 1 2 1 2 3 1 6 3 0 1 2 1 3 5 4 3 2 2 0 5 8 12 12 11 8 3 3 3 2 1 0 1 6 7 8 10 11 11 8 6 4 4 4 7 11 12 14 14 14 14 14 14 14 13 13 13 13 13 13 14 15 15 15 15 16 16 16 16 16 16 16 16 16 17 17 17 19 20 20 20 20 17 20 20 20 19 19 19 19 18 17 19 20
2 4 3 4 3 3 1 2 1 1 5 3 2 2 1 4 5 3 3 4 4 4 5 6 7 4 2 2 4 2 1 3 2 1 3 5 11 5 9 10 9 10 10 6 6 5 5 7 10 13 14 14 15 14 14 14 14 14 14 13 13 13 12 13 13 15 15 15 15 15 15 15 16 16 16 15 14 15 15 16 17 19 20 20 18 18 20 20 19 19 19 19 19 18 19 19 20
1 2 2 2 0 3 1 2 4 7 4 5 2 1 2 6 4 4 3 3 3 3 1 1 3 1 4 7 2 4 3 1 1 3 5 7 4 8 9 10 9 8 7 6 5 4 5 7 10 13 14 14 15 14 14 14 14 14 14 14 14 13 12 13 13 14 15 15 15 14 15 15 15 17 16 15 17 18 18 17 19 20 19 19 18 19 20 19 19 19 19 20 20 18 18 20 20
2 1 3 3 4 1 1 0 4 3 4 4 6 3 3 3 6 3 1 1 1 2 2 2 4 3 1 5 1 1 4 1 1 0 2 1 5 9 9 9 9 9 8 7 6 5 5 10 11 12 14 15 15 14 14 14 14 13 13 14 14 14 13 13 13 13 14 14 14 14 14 14 15 15 16 17 18 18 18 17 19 21 20 18 19 19 20 19 19 19 19 19 19 19 19 19 19
4 3 2 2 0 2 5 2 3 1 5 4 3 4 5 5 8 4 2 1 1 1 3 3 4 3 2 2 1 3 3 5 2 1 3 5 10 10 10 9 9 8 7 7 6 5 6 10 11 13 15 15 15 14 14 14 14 13 13 13 14 14 13 13 13 13 14 14 14 14 14 14 14 15 16 17 17 18 18 18 18 21 19 18 18 19 19 18 19 18 19 19 20 19 19 20 19
1 4 3 4 1 4 3 4 3 3 1 6 5 4 7 5 4 6 4 4 2 5 1 3 5 4 4 1 1 1 3 3 2 3 3 7 9 10 10 8 8 8 7 6 6 6 7 10 12 13 14 14 16 15 14 14 14 13 13 14 14 14 13 13 13 13 13 14 14 14 14 13 16 15 16 17 18 17 18 18 20 20 19 18 17 18 18 18 18 17 18 18 19 19 19 19 19
2 1 1 1 1 2 2 1 1 4 0 4 5 9 5 5 5 3 3 3 2 2 2 3 3 5 0 3 2 2 4 0 2 3 8 7 10 10 9 9 9 8 7 6 6 6 8 10 12 13 13 14 14 15 15 15 15 14 14 14 14 14 14 13 13 13 13 13 13 13 13 13 15 17 16 15 15 17 17 18 18 18 18 17 17 18 18 18 17 18 18 19 19 19 19 20 19
3 3 1 4 1 3 3 1 0 1 1 3 2 2 8 7 6 5 3 0 1 1 2 3 4 6 2 3 1 3 3 2 3 8 8 9 11 10 8 9 10 8 8 7 6 6 6 9 11 13 12 13 14 14 15 15 15 15 14 15 15 14 14 14 14 14 14 13 14 13 13 13 13 13 13 14 16 16 16 16 17 17 18 17 17 17 18 17 17 18 18 18 18 18 19 19 19
1 2 1 1 2 3 2 1 5 1 3 3 7 6 5 4 3 3 5 3 3 3 1 1 1 3 2 4 1 2 1 0 5 7 6 9 9 8 9 10 11 11 9 8 7 7 5 9 11 12 12 13 13 14 15 14 14 15 15 15 15 14 14 14 14 14 14 14 13 13 13 13 13 14 14 14 14 15 15 15 16 17 17 17 17 17 18 17 16 17 18 18 17 18 18 18 18
1 4 2 2 4 3 3 2 1 1 2 0 1 4 8 5 5 4 2 4 1 3 0 2 5 5 4 1 2 3 3 1 7 9 6 8 7 9 8 8 10 12 10 9 8 7 6 6 11 11 11 12 12 13 13 13 14 14 14 14 14 14 13 14 14 13 14 14 13 13 13 13 13 14 14 13 13 13 14 15 16 17 17 17 16 16 17 15 15 16 17 17 17 17 18 18 18
1 1 1 2 2 7 5 6 4 1 1 1 2 3 3 5 4 4 3 6 1 2 2 4 4 5 3 1 1 0 0 2 5 7 5 5 6 7 9 7 9 9 11 9 8 7 7 6 6 9 11 11 11 12 12 12 13 13 13 14 14 13 13 14 14 14 14 13 13 13 13 13 14 14 13 13 12 12 13 14 15 16 17 16 16 16 16 14 15 15 16 17 17 18 18 19 19
3 1 4 3 0 3 3 4 4 2 1 4 5 3 4 6 6 7 6 5 3 4 0 3 7 2 2 1 2 1 2 6 3 4 4 5 5 5 8 8 8 10 10 8 8 8 8 6 6 6 7 11 10 11 11 11 12 13 13 14 14 13 13 13 14 14 14 14 14 13 13 12 12 14 14 13 13 13 14 14 15 16 16 16 16 16 16 14 15 15 16 17 17 18 18 18 18
2 3 3 0 1 4 5 3 0 5 2 3 2 1 4 3 4 7 7 6 3 5 1 3 4 5 2 2 1 4 6 5 4 3 3 4 4 6 8 7 7 8 10 10 9 8 8 6 6 6 6 5 6 8 9 10 11 13 13 13 13 12 12 13 12 12 13 12 11 11 10 10 12 13 13 13 13 12 13 12 15 15 16 16 16 16 15 14 15 16 16 17 17 18 18 18 18
0 2 3 3 1 4 2 5 10 5 4 3 2 3 2 2 5 3 9 6 5 3 0 1 3 4 4 7 4 9 10 8 6 4 4 4 5 6 7 8 8 7 8 9 8 9 8 6 6 6 6 6 5 5 5 7 12 12 12 13 13 12 11 11 11 11 11 11 11 10 10 11 11 11 11 11 10 9 10 11 14 15 16 16 16 16 14 15 16 17 17 17 17 18 18 18 17
2 5 3 1 1 4 3 2 2 4 2 4 0 4 6 1 1 6 4 4 2 1 0 1 2 1 2 8 5 12 10 7 7 4 5 5 5 4 7 8 7 7 7 8 8 7 8 7 6 6 6 6 5 5 5 6 10 12 12 12 13 13 12 11 10 11 12 11 11 11 11 10 10 9 11 9 11 10 9 8 12 13 16 16 16 15 15 15 17 17 18 18 18 18 18 17 17
2 3 0 3 1 1 2 3 5 4 2 3 2 4 4 1 0 0 0 1 8 0 4 1 1 2 4 4 2 12 10 8 7 6 6 5 6 6 5 6 6 5 5 7 8 7 7 8 8 6 7 7 7 6 6 6 8 12 10 12 12 13 12 12 11 11 11 11 10 10 10 7 6 6 7 6 9 7 9 10 11 13 15 15 15 15 16 16 17 18 18 18 18 18 16 17 16
1 0 3 1 1 1 3 3 8 1 8 5 4 4 6 3 1 0 2 6 4 3 5 2 4 4 2 3 3 11 11 11 8 10 7 6 5 5 6 6 7 8 7 7 7 8 8 8 9 8 7 8 7 6 4 6 6 9 8 8 8 9 10 11 10 8 8 7 10 8 6 5 5 5 6 6 6 7 8 10 11 12 15 14 14 15 16 16 17 18 18 18 17 15 13 9 9
2 2 3 2 4 1 3 2 5 4 4 8 5 2 7 6 6 2 4 0 2 3 2 3 3 5 5 4 7 12 11 10 10 10 11 11 9 10 9 7 8 7 8 7 8 9 8 8 8 8 8 8 8 7 5 6 8 6 7 7 7 8 8 8 7 8 6 7 6 6 6 5 5 5 5 6 6 9 9 10 11 12 12 12 13 14 15 16 17 18 18 17 16 13 9 7 7
1 3 1 2 6 2 2 1 1 3 3 7 5 3 3 1 3 1 3 5 1 6 4 1 1 1 3 4 5 9 9 10 10 11 12 12 10 11 9 9 9 10 10 9 8 8 9 8 9 9 9 9 8 7 6 7 6 6 6 6 6 7 6 6 6 7 6 6 6 6 5 5 5 5 7 11 9 7 7 10 11 11 11 11 12 9 12 13 16 16 16 14 9 6 7 7 7
1 3 2 3 3 1 0 0 1 2 6 9 6 2 2 1 3 3 4 6 3 4 6 9 11 8 9 7 7 8 10 10 10 9 10 10 8 7 10 12 12 11 9 7 7 9 10 9 8 8 8 8 8 7 7 6 7 6 6 6 6 7 6 6 5 6 6 6 6 5 6 5 5 5 5 5 5 6 6 5 6 5 5 6 8 6 6 7 7 7 7 8 6 7 7 6 6
4 0 1 2 1 1 2 2 2 2 3 7 5 7 4 1 1 3 9 7 7 9 8 8 9 13 13 11 10 7 9 11 11 11 12 13 14 13 8 5 1 3 5 8 10 9 10 10 10 8 8 8 9 8 8 8 8 7 7 7 7 6 7 7 6 6 6 6 6 6 6 7 6 6 4 5 5 6 6 5 6 6 5 5 5 6 6 6 6 6 7 7 6 6 7 6 6
2 2 0 0 2 1 0 2 5 4 3 5 6 4 4 4 1 2 7 8 4 7 6 12 7 15 17 13 12 10 10 12 12 14 13 12 12 11 11 9 9 9 8 10 9 8 9 9 10 9 9 9 9 8 7 7 7 7 7 7 8 7 7 7 7 7 6 6 6 7 8 7 7 6 6 5 5 5 6 6 5 5 5 6 5 6 6 6 6 6 7 7 6 7 7 7 7
6 3 0 1 1 3 1 0 2 5 10 4 1 1 4 3 2 1 4 5 6 3 1 4 5 7 9 11 13 16 16 15 16 16 16 18 18 18 16 14 11 7 6 8 8 8 9 10 9 10 10 10 9 9 8 8 7 7 8 8 8 8 8 8 8 8 7 7 7 7 7 8 8 7 6 6 5 4 6 6 6 5 5 5 5 6 7 6 6 6 7 7 8 7 8 6 7
2 1 1 1 1 0 0 1 4 4 3 0 3 4 2 4 1 1 4 7 5 5 2 4 9 11 9 11 14 11 10 10 12 12 8 8 8 7 4 6 6 6 10 10 9 9 10 9 9 10 9 11 9 9 9 8 8 8 8 8 8 9 8 8 8 8 8 8 8 8 7 8 6 7 7 6 6 6 5 6 6 6 5 5 6 5 6 7 6 6 7 7 7 7 7 7 7
1 2 3 1 0 0 0 3 3 3 1 1 4 0 2 1 3 3 8 6 6 1 3 4 8 10 11 13 14 13 12 14 13 10 15 11 6 7 9 9 9 10 13 12 10 10 9 9 10 12 11 10 10 9 8 8 9 9 9 9 8 9 8 8 9 8 8 8 8 8 8 8 9 9 8 6 7 7 6 6 6 6 6 5 6 6 5 6 7 7 7 7 7 7 7 6 7
3 5 2 4 0 0 1 1 1 0 1 1 3 1 0 3 3 6 3 5 3 5 4 2 9 11 11 10 11 11 13 14 15 14 6 5 7 10 11 10 11 13 10 11 11 10 9 10 11 11 10 9 9 10 8 9 9 9 9 9 8 9 9 8 9 9 8 8 9 10 9 8 8 8 9 9 6 7 7 7 6 5 6 6 6 7 5 7 6 6 7 7 7 7 7 5 7
6 7 4 5 3 1 1 2 0 0 1 2 4 1 1 2 1 8 2 1 6 8 5 5 5 8 9 10 10 10 11 12 9 6 13 12 12 12 13 13 14 12 12 13 12 10 9 12 12 11 10 9 10 10 9 9 9 10 10 9 9 9 10 8 8 9 9 9 9 10 9 9 8 8 10 9 8 8 8 8 7 6 6 6 6 7 7 6 7 6 6 7 6 7 7 6 5
5 5 3 3 4 1 1 2 1 0 0 0 0 1 2 0 4 11 2 0 5 7 7 6 6 6 7 7 8 7 12 10 7 9 13 14 13 12 15 15 14 13 11 13 11 9 13 12 12 12 11 10 11 12 10 9 8 8 9 10 9 9 9 9 8 8 9 10 9 10 10 10 8 9 9 10 10 9 8 8 8 7 7 7 7 8 8 7 7 8 7 7 7 7 8 6 5
3 4 5 3 2 2 2 1 1 1 1 1 0 2 7 8 12 7 2 2 3 4 5 6 6 6 6 6 7 8 7 6 8 13 13 12 11 11 14 13 12 12 10 8 9 12 11 8 9 9 11 12 11 10 9 8 8 8 8 8 8 9 8 9 9 7 8 9 10 10 10 10 9 8 10 10 9 9 8 7 8 8 8 8 9 9 9 7 8 8 8 8 7 8 8 7 7
3 1 3 2 2 2 2 0 0 4 1 1 1 2 6 5 6 8 6 2 7 7 6 6 7 6 5 6 7 9 10 10 14 14 14 13 11 10 13 10 11 11 7 7 13 14 11 10 9 9 11 12 11 10 10 9 8 8 8 8 8 8 7 8 9 8 7 7 8 10 11 11 10 10 10 10 10 10 10 9 7 6 8 9 9 8 9 7 8 9 8 9 7 7 7 7 7
2 4 1 1 2 3 4 1 4 4 1 3 4 1 7 8 10 7 5 2 5 6 6 6 6 6 7 6 8 9 11 10 12 11 12 13 11 11 11 12 11 10 12 12 10 8 11 10 10 10 11 12 12 11 10 9 9 8 8 8 8 8 8 8 7 8 9 8 8 8 11 11 11 10 10 9 9 9 10 10 9 8 9 8 8 9 9 9 8 7 6 9 10 8 8 7 5
4 2 1 1 1 2 2 1 1 3 1 3 2 4 4 3 2 2 3 2 1 4 5 5 7 8 8 8 8 8 8 8 8 12 12 12 11 11 11 11 12 14 12 10 11 10 10 11 11 12 13 14 12 11 9 7 8 8 8 8 9 8 8 8 8 7 7 8 8 8 9 10 11 10 10 11 9 9 9 9 9 11 10 9 9 9 9 8 9 8 7 6 9 10 9 10 7
3 2 2 3 4 1 2 3 1 0 1 2 1 1 6 4 7 5 6 2 0 3 6 7 7 7 8 7 8 9 9 9 12 13 15 13 12 12 11 11 12 11 10 10 11 13 13 11 11 11 10 11 11 11 10 8 7 7 6 7 7 8 8 7 7 7 8 8 8 8 9 9 11 11 11 10 9 9 9 9 10 11 9 8 8 9 7 7 8 9 10 6 7 10 10 10 9
6 2 1 1 1 3 2 2 1 1 2 2 1 2 11 12 8 9 9 2 2 6 8 8 8 8 9 9 9 9 9 10 15 12 12 13 12 11 10 9 9 8 8 9 9 9 8 9 9 9 9 10 9 8 7 7 6 5 5 5 5 7 7 6 7 7 8 8 8 9 9 8 10 12 12 11 10 9 8 8 9 12 10 10 9 9 9 8 6 6 11 10 7 6 9 9 10
8 8 6 4 4 3 2 3 2 2 1 2 3 6 8 10 10 10 9 4 5 9 7 8 9 9 9 9 10 9 9 13 13 8 8 9 10 10 10 9 9 8 8 8 8 8 9 8 8 8 9 9 7 6 6 6 6 7 7 3 4 6 6 7 6 7 7 8 8 9 10 9 9 9 11 11 12 12 11 11 11 11 10 11 11 10 10 10 12 10 9 11 10 8 6 9 11
5 4 4 3 3 1 1 1 1 0 1 5 6 6 5 10 10 12 11 1 3 6 10 12 11 11 11 10 11 13 11 14 7 5 6 7 8 7 7 6 7 6 6 7 9 10 10 11 10 11 8 7 8 8 8 8 9 6 4 8 9 6 6 5 6 5 6 7 7 8 10 9 10 11 11 12 11 11 11 11 12 12 11 11 12 12 13 13 11 11 11 8 12 12 8 8 8
7 6 5 1 1 2 1 0 1 2 2 2 2 2 9 12 11 12 10 5 9 11 12 12 14 13 11 11 14 14 12 4 6 6 7 6 6 6 6 7 6 8 8 8 11 12 10 8 10 10 7 8 9 10 9 8 9 10 10 9 5 4 5 6 6 5 6 6 7 7 8 9 10 9 10 11 11 12 11 10 11 13 12 11 11 10 10 10 12 11 11 9 6 12 11 11 11
3 5 4 4 1 1 1 1 1 1 2 7 3 5 10 10 11 11 9 13 11 9 10 12 12 12 11 11 12 12 7 10 6 8 7 5 6 6 6 7 8 11 10 11 9 8 8 9 9 8 8 9 9 8 8 9 5 2 4 3 5 2 1 1 1 2 4 5 6 6 6 7 8 9 9 11 11 11 12 13 12 10 12 11 11 11 11 11 12 13 14 13 11 5 7 9 12
6 4 1 3 2 2 1 3 2 2 1 2 3 7 13 7 6 12 14 10 8 6 6 11 10 13 14 14 11 10 10 10 10 11 11 6 4 5 5 6 10 7 6 6 7 10 8 9 8 9 9 8 8 7 7 3 4 3 4 3 3 2 2 2 2 1 3 4 7 6 5 5 6 7 10 8 9 13 12 13 12 11 11 11 12 14 15 15 12 11 11 9 11 13 10 11 10
2 3 3 4 1 1 3 1 0 1 1 2 3 5 10 5 3 4 4 3 4 7 4 9 11 10 11 7 7 7 10 9 11 9 7 3 5 8 13 11 5 7 8 9 10 10 9 12 11 10 9 9 7 6 6 5 6 5 5 5 4 3 2 2 1 2 4 4 4 6 6 4 3 4 7 10 9 9 12 13 13 13 13 12 10 12 14 16 16 16 16 14 14 13 11 8 10
1 2 3 3 5 5 1 3 1 5 2 2 2 4 5 5 6 8 9 6 7 2 4 8 10 8 8 11 15 7 7 8 10 9 6 6 7 6 4 4 7 7 8 9 9 9 8 8 8 7 6 6 7 6 7 7 7 8 7 6 5 4 6 4 9 9 6 6 6 1 2 4 4 4 4 7 10 10 9 10 12 12 11 11 11 12 12 12 12 13 15 16 14 14 17 14 12
2 2 3 5 7 5 3 0 2 1 1 1 3 2 9 5 5 6 9 8 12 10 6 12 13 9 6 10 5 6 9 8 5 4 3 5 7 5 5 6 7 8 9 5 5 6 6 7 7 7 8 7 7 7 8 8 7 7 10 10 9 10 10 7 2 1 5 4 2 4 4 4 4 5 4 6 8 9 10 10 10 12 14 12 9 9 12 15 16 15 13 13 14 10 9 14 17
1 1 5 6 7 5 3 3 2 2 1 4 3 3 3 10 7 6 4 4 10 10 13 12 11 13 8 3 5 8 10 6 4 5 6 6 6 8 11 10 8 10 5 5 5 5 7 8 8 8 7 8 8 8 9 9 10 9 8 8 7 8 8 7 5 4 3 4 5 4 4 5 5 5 5 5 7 8 10 10 11 11 11 12 12 11 13 12 11 11 13 13 11 12 15 14 15
2 3 7 4 6 4 5 3 3 0 2 7 4 0 1 6 10 5 1 5 5 10 12 11 11 9 7 5 6 8 8 6 6 7 8 8 8 8 6 7 6 4 6 8 8 8 7 6 7 6 8 8 7 8 9 8 8 9 9 8 7 6 5 5 4 5 5 5 5 4 5 6 5 5 6 6 6 8 9 11 11 10 11 11 12 12 12 13 17 17 14 13 14 14 13 11 12
1 5 6 6 7 6 4 3 2 1 1 7 2 2 2 8 8 6 2 1 7 9 10 11 10 8 5 5 8 9 5 4 4 6 5 5 6 5 4 2 4 6 4 4 4 4 5 5 7 8 8 7 7 8 8 8 7 7 8 7 9 7 6 5 5 6 6 6 7 6 6 6 6 6 6 5 6 8 9 10 11 12 11 11 10 11 11 12 12 14 18 18 16 14 10 11 13
7 5 7 6 8 4 3 7 2 2 2 7 8 7 5 6 6 7 3 5 5 5 7 5 6 7 5 6 7 4 1 0 2 3 4 4 2 2 3 5 5 3 3 4 5 5 5 6 7 8 8 7 7 9 9 9 8 8 9 9 10 10 8 7 6 6 6 6 8 7 7 7 6 7 5 6 7 8 10 10 11 12 12 11 12 12 13 14 14 14 13 13 13 17 13 13 9
6 2 3 4 2 6 3 4 4 1 5 5 2 3 1 6 6 6 8 7 5 5 6 7 9 9 6 4 2 2 1 1 2 2 1 1 1 0 2 4 4 4 4 4 4 4 5 6 6 8 6 7 7 7 8 9 9 9 8 9 11 10 10 9 10 10 9 9 9 9 7 6 7 6 6 7 8 9 9 9 10 10 11 11 12 11 11 11 10 10 10 12 12 11 9 11 10
6 6 7 4 3 5 2 4 1 5 6 1 4 1 2 13 7 7 9 8 9 6 6 5 7 8 7 4 3 2 2 1 1 1 1 1 3 4 4 5 4 5 6 5 6 6 5 6 7 8 8 7 8 7 9 9 9 10 10 10 10 8 9 10 10 9 8 9 8 8 7 7 6 7 8 9 9 9 9 9 10 11 10 10 11 11 11 11 11 11 12 13 11 13 14 13 11
5 7 6 5 1 1 3 3 2 6 5 5 2 1 6 3 5 13 14 12 6 4 7 8 6 5 4 3 3 2 3 3 3 2 3 4 4 5 5 5 5 4 5 6 6 6 6 5 5 7 8 7 6 7 9 9 10 10 10 10 9 8 9 9 9 9 8 8 7 8 8 8 8 9 8 10 8 8 9 10 10 10 10 11 12 12 12 12 13 12 13 14 14 14 12 14 13
8 2 9 8 8 5 3 3 4 5 4 3 5 1 7 2 2 2 7 9 10 6 6 6 5 5 6 6 4 3 3 5 4 4 5 5 5 5 6 4 4 5 5 6 5 5 4 5 6 7 6 6 7 8 8 10 10 9 9 9 9 8 9 9 9 8 7 8 7 8 8 8 9 8 8 7 7 8 8 8 10 11 11 11 11 11 10 11 12 12 12 14 13 11 12 12 11
0 3 6 5 5 6 1 5 2 1 1 3 1 7 4 5 3 7 7 8 9 6 8 4 6 3 4 5 4 5 5 5 5 5 5 6 6 5 4 4 5 5 6 5 5 4 5 7 6 7 8 7 8 7 8 9 9 8 8 10 10 9 8 8 7 7 7 8 9 9 9 9 8 8 8 7 8 8 9 9 9 11 10 11 11 12 12 11 12 12 11 11 13 9 11 14 13
4 4 4 6 3 6 4 2 1 1 3 9 2 8 7 8 7 10 8 5 9 5 6 4 5 2 5 7 8 4 5 5 5 6 6 7 6 7 6 5 5 6 6 8 7 7 8 7 7 8 7 5 7 8 9 8 8 7 9 9 9 9 10 11 10 9 9 8 8 9 9 9 9 8 7 8 9 8 9 9 10 11 11 11 11 11 12 12 12 12 12 13 14 13 13 15 14
8 2 7 2 2 4 4 4 2 2 4 8 2 9 6 3 10 4 3 2 7 8 8 7 6 6 6 8 11 2 4 5 6 6 6 7 7 6 5 6 7 8 8 6 6 6 7 7 8 9 8 9 8 9 9 9 10 9 9 10 10 10 10 10 9 9 8 8 8 8 8 8 9 8 8 7 8 9 9 9 9 9 10 10 12 11 11 12 12 12 13 14 14 13 14 12 12
4 3 4 6 2 1 2 4 3 1 2 6 4 2 7 9 10 0 2 1 6 8 8 6 7 6 8 11 11 7 6 5 4 5 7 8 9 8 8 9 8 8 6 6 5 6 6 7 8 9 11 11 10 9 8 8 9 8 8 10 10 10 9 8 8 7 7 9 10 9 9 9 7 7 8 7 8 8 8 8 8 8 8 10 10 11 11 11 12 12 12 12 12 12 12 13 12
2 3 3 1 3 2 5 7 4 6 5 1 9 3 12 5 7 9 6 4 5 6 5 5 8 11 10 8 7 8 6 5 6 5 6 8 8 8 8 9 10 10 8 7 7 7 9 9 8 8 6 5 6 8 8 10 9 8 8 7 7 8 8 8 7 8 9 10 10 10 10 9 9 7 8 8 9 9 9 9 8 8 8 9 9 10 11 12 11 11 11 11 11 12 13 13 11
2 2 4 1 0 2 4 1 4 4 5 5 3 8 9 4 6 9 9 8 8 8 9 10 9 10 10 7 8 8 5 5 6 5 6 6 6 6 6 6 5 4 4 5 7 10 9 6 8 7 9 8 9 9 8 9 7 8 8 9 9 8 8 7 7 8 9 9 9 10 9 9 7 9 8 9 9 9 9 9 9 9 9 9 10 9 9 10 11 11 10 11 10 12 13 11 9
13 14 12 13 9 4 4 8 2 1 3 5 2 12 11 6 3 7 7 10 10 7 7 6 6 8 11 9 7 5 5 6 6 5 5 7 5 4 3 4 4 5 6 8 7 5 6 8 8 7 8 10 10 9 9 7 7 7 9 8 7 6 7 7 8 8 9 8 8 9 8 7 9 8 9 9 10 9 8 9 10 10 9 9 9 11 10 10 11 12 11 8 9 11 12 11 9
Wind_Direction
345 326 281 197 80 90 62 7 110 312 64 100 159 78 185 81 215 77 107 328 64 301 273 7 41 64 159 172 140 137 85 128 212 134 212 230 139 141 142 136 132 139 144 150 154 144 136 137 133 128 128 128 123 119 115 108 104 101 99 96 94 91 91 92 92 92 91 89 87 85 86 90 97 99 96 92 90 90 87 90 86 86 84 79 76 80 84 90 90 86 77 73 68 59 64 75 87
318 310 23 143 93 76 254 128 100 10 39 60 180 96 142 301 67 142 146 148 190 135 154 86 66 70 72 106 123 115 31 1 196 191 263 74 125 126 144 144 143 145 146 149 150 140 132 131 134 134 131 130 128 126 120 114 109 106 104 101 99 98 97 97 99 98 96 93 93 95 96 97 96 94 94 94 94 97 97 92 90 86 85 82 84 92 94 92 89 83 78 71 63 59 64 79 90
341 356 36 34 33 77 82 38 269 96 93 134 265 213 318 98 137 223 210 160 173 135 129 94 95 75 56 48 29 36 240 332 89 55 90 144 125 185 153 146 145 141 142 147 147 142 133 139 142 137 134 132 131 130 124 119 116 113 108 105 103 102 100 98 98 100 99 98 99 98 96 95 95 94 90 86 88 85 86 91 92 91 85 82 88 95 94 93 88 78 73 70 65 67 73 81 85
72 18 112 77 268 24 67 30 89 124 131 202 105 287 162 151 179 189 214 191 154 134 171 42 57 277 101 59 128 86 67 117 288 141 130 167 184 152 150 141 137 135 137 144 150 144 140 152 146 140 135 134 135 131 127 123 121 117 112 109 106 103 102 100 100 100 101 102 101 101 103 103 99 87 84 81 78 80 78 82 92 91 85 85 91 96 96 95 90 82 73 72 73 73 79 85 85
64 336 77 96 104 352 115 156 138 95 144 197 162 265 223 190 157 197 226 243 267 140 82 117 73 353 103 125 101 149 208 145 266 110 131 139 132 145 139 135 137 139 145 149 148 148 155 157 148 140 139 139 136 134 130 127 122 119 115 114 112 110 107 105 103 103 102 101 102 101 98 94 92 90 81 79 81 82 83 88 92 90 91 89 94 98 98 94 86 78 71 73 72 76 86 89 86
55 44 8 89 15 165 48 49 55 111 216 153 121 211 212 208 152 195 172 233 191 48 129 70 147 177 21 341 180 108 171 122 204 100 141 160 145 142 140 139 139 142 144 142 148 153 161 161 148 145 143 141 139 137 134 130 126 121 120 117 115 112 110 110 109 107 106 106 105 103 98 95 94 93 88 87 87 84 87 88 88 90 89 92 97 100 99 92 82 72 69 70 72 77 82 86 89
347 39 352 26 5 55 184 118 138 167 276 152 170 172 192 213 204 139 151 115 348 62 4 133 112 84 75 294 22 79 272 229 104 182 141 153 140 141 142 142 139 138 142 143 144 153 163 160 152 147 145 144 142 141 140 135 131 128 124 121 118 117 115 115 114 113 111 109 107 105 103 101 97 93 93 91 91 92 92 91 87 89 90 92 97 101 100 92 82 69 64 61 64 77 84 86 87
64 110 290 100 245 48 39 167 178 164 25 166 180 145 203 199 188 158 154 100 182 97 47 114 131 100 264 27 151 281 339 220 190 121 125 136 140 143 143 142 136 141 142 144 148 153 163 165 155 147 147 145 144 145 144 140 136 133 129 127 125 123 122 119 118 117 115 112 109 106 103 100 104 105 104 101 97 94 91 91 94 92 93 94 98 101 102 97 79 69 65 62 63 67 82 87 87
357 86 3 68 57 22 61 76 69 221 27 93 140 211 175 184 183 134 113 211 97 75 101 136 174 90 215 43 47 279 314 343 102 125 131 138 141 146 143 144 141 142 144 147 153 157 161 170 155 150 148 145 147 149 147 144 140 137 133 130 128 128 126 124 122 122 119 117 113 111 108 106 104 101 100 106 105 102 100 98 98 98 97 98 100 103 104 94 76 71 67 66 66 71 86 92 88
21 81 290 151 129 58 41 300 82 186 176 216 154 180 176 195 190 119 136 95 164 125 148 92 111 119 139 111 25 318 218 293 121 116 139 137 135 139 141 146 143 142 146 149 154 158 162 164 156 151 150 148 150 151 149 147 144 140 137 134 131 130 128 127 125 123 121 119 117 114 111 109 109 108 102 96 102 103 102 101 99 101 101 101 104 106 104 87 77 74 71 69 69 72 84 92 90
353 10 139 76 25 116 157 230 153 58 150 213 279 188 188 177 129 121 127 145 105 131 123 113 54 122 99 185 206 254 278 260 145 154 163 141 125 134 138 143 144 146 150 152 154 156 159 157 158 152 151 152 154 153 150 150 147 143 139 137 134 133 131 129 127 125 124 122 121 119 115 113 111 110 111 109 108 110 107 107 105 103 103 103 106 107 108 87 80 75 70 69 72 76 82 86 84
12 26 8 114 169 159 216 156 165 201 279 150 184 205 225 140 100 99 107 119 217 116 147 124 178 143 62 117 298 309 323 217 171 155 160 136 114 135 139 142 145 150 150 152 150 154 156 157 156 158 156 156 157 152 151 153 149 145 141 139 136 136 135 134 130 130 128 126 123 121 120 118 115 111 110 109 109 113 113 110 111 110 108 105 105 106 102 89 84 76 71 72 76 78 79 78 77
117 109 79 88 221 117 156 119 193 135 150 214 168 222 142 119 161 165 166 133 143 105 98 231 134 84 114 156 274 297 204 213 225 181 156 122 116 131 138 144 153 149 148 150 151 151 156 158 157 160 161 160 155 152 154 154 148 147 144 141 139 139 139 137 136 134 132 130 128 125 121 117 114 114 112 113 112 112 114 112 112 112 108 107 105 105 106 92 86 78 73 75 80 81 82 82 80
110 170 124 356 66 112 131 187 360 134 254 236 262 145 175 133 210 164 126 121 203 148 238 179 134 126 101 64 250 208 231 216 225 215 119 92 106 121 141 148 153 154 151 154 158 156 157 159 159 153 151 152 150 151 153 151 149 148 147 142 141 141 141 139 137 135 134 129 122 117 115 112 110 111 112 113 115 112 114 115 115 113 110 109 111 112 108 96 89 81 78 79 81 83 83 82 79
137 132 83 115 38 102 218 122 192 160 209 184 220 146 96 358 111 150 149 138 227 220 309 93 166 115 232 150 256 202 200 204 195 178 107 88 94 119 144 149 154 156 155 159 158 160 160 159 158 154 156 150 138 143 151 153 149 149 147 143 141 141 140 138 138 132 122 119 116 112 106 104 105 106 107 107 104 105 110 114 115 114 116 114 115 114 103 97 89 82 79 79 81 82 81 79 77
153 81 83 124 143 147 229 135 73 117 196 169 260 132 80 360 169 132 247 145 174 6 46 156 21 261 157 167 212 184 175 173 179 132 109 96 87 100 141 149 153 161 161 158 162 169 162 153 153 160 151 149 138 134 150 153 150 149 150 145 144 142 139 136 129 124 121 116 111 107 106 103 101 102 104 103 104 100 99 109 115 117 119 118 117 112 104 97 89 83 78 76 76 77 74 72 71
51 84 335 31 137 143 229 156 152 198 232 233 275 162 136 182 284 245 77 115 120 125 51 12 317 357 167 207 257 140 154 151 138 121 112 112 113 113 130 143 150 157 164 170 168 170 169 161 161 153 167 164 161 157 152 147 157 150 151 147 144 142 139 133 124 118 115 116 115 113 108 106 109 107 99 105 102 103 103 108 117 121 120 121 121 111 105 98 91 87 84 80 77 73 69 64 62
56 104 112 55 201 141 205 185 190 220 137 208 176 194 113 131 304 245 69 41 69 35 59 328 12 30 316 291 141 133 140 148 152 142 153 147 144 143 155 162 161 173 170 172 181 171 169 173 172 175 172 172 164 159 148 154 143 154 151 148 144 141 135 129 128 131 129 126 124 119 116 119 116 113 112 108 108 106 103 107 111 117 125 125 121 112 106 98 92 90 87 84 80 75 67 65 62
107 111 89 219 192 245 158 229 218 145 183 170 181 167 156 198 140 224 106 242 107 74 7 13 20 358 23 60 120 131 145 155 160 165 165 166 169 171 169 167 175 166 175 176 181 179 176 174 178 177 177 173 166 160 156 153 159 156 155 151 144 140 140 137 138 136 139 138 135 127 125 123 120 116 119 119 115 109 110 111 115 121 123 121 119 110 101 95 93 91 87 84 80 73 67 68 66
218 118 138 247 207 218 203 187 241 262 158 143 146 220 143 217 145 192 153 167 102 159 159 335 177 215 154 138 141 144 153 165 171 171 179 180 179 174 172 176 181 184 181 181 174 177 176 180 181 179 177 174 170 165 156 156 163 159 158 157 148 145 145 143 143 143 145 145 141 136 129 125 117 111 115 116 111 105 104 107 113 120 118 90 79 76 80 85 88 84 84 81 75 72 77 71 74
226 75 160 214 192 101 310 57 306 281 171 153 154 98 143 244 196 154 155 117 257 256 224 166 203 186 178 177 166 161 162 168 179 182 184 189 193 194 188 183 185 183 179 165 168 181 183 180 179 182 177 175 173 169 162 163 164 161 162 158 154 153 150 148 147 147 149 149 141 136 131 122 118 117 117 111 112 115 108 107 109 100 89 93 93 85 90 85 83 83 76 74 73 77 77 69 74
82 144 210 196 97 113 267 282 21 83 56 118 125 134 219 119 62 117 145 165 211 209 219 220 189 171 162 174 186 172 173 175 182 185 192 191 192 197 202 211 206 166 158 178 186 180 184 181 177 177 176 177 176 174 172 169 166 169 167 162 157 156 155 154 152 155 156 154 147 140 129 124 124 123 122 120 122 126 122 121 119 115 100 97 98 98 91 93 88 88 84 82 79 77 77 74 63
113 312 272 253 237 138 286 333 338 129 95 122 143 201 104 133 209 167 168 187 231 214 199 203 185 173 179 166 160 175 179 185 187 193 192 196 203 205 201 195 185 186 189 193 184 185 181 181 178 171 179 177 179 174 171 170 178 172 169 165 161 163 162 160 163 163 166 160 152 150 142 142 138 138 135 137 138 140 134 133 131 123 112 105 107 109 97 92 95 92 89 86 85 85 79 75 73
106 191 277 7 116 117 236 169 36 94 116 149 208 75 142 138 164 141 184 244 235 272 211 228 161 145 132 154 182 179 185 186 196 198 194 197 195 199 197 193 199 185 186 195 192 188 184 187 179 173 180 179 182 176 174 178 180 175 174 165 170 169 165 170 168 169 166 169 161 162 155 152 149 148 148 148 151 147 146 142 139 124 110 107 107 108 108 99 97 95 97 93 91 85 88 79 77
96 102 228 221 49 327 360 101 54 76 63 40 94 127 232 170 157 70 244 236 251 263 33 95 133 142 162 169 181 192 194 201 206 206 211 224 219 219 223 220 197 184 198 201 198 194 195 186 181 182 181 183 182 179 183 180 180 179 174 176 177 170 176 175 173 167 171 174 167 165 160 152 151 149 153 156 151 152 150 149 145 131 118 121 114 103 111 113 104 106 103 104 99 96 91 85 85
155 177 137 52 79 354 336 60 42 75 87 66 95 335 317 250 267 246 234 247 219 127 70 103 126 144 170 185 187 186 196 202 206 203 210 208 202 198 214 205 198 200 206 199 193 202 196 188 189 190 184 185 182 183 187 182 180 182 180 182 181 172 182 177 170 173 177 175 170 173 171 163 161 159 156 156 158 159 156 154 146 132 128 130 119 115 119 114 117 111 109 109 106 102 98 99 96
145 104 105 117 28 43 349 143 34 355 82 298 148 259 318 332 50 279 282 244 102 114 134 150 146 170 185 189 192 198 194 205 204 207 203 207 209 205 212 205 204 210 200 203 203 201 192 190 198 194 188 184 180 190 188 187 179 185 183 183 180 181 182 178 176 177 180 184 175 174 173 174 164 159 159 161 163 159 158 158 149 135 129 134 128 120 120 120 117 116 119 118 114 110 104 104 100
97 129 84 30 344 16 17 76 360 60 27 88 121 150 319 314 84 236 231 2 166 149 176 174 190 183 191 197 196 201 205 215 212 179 203 198 207 205 205 201 208 206 200 208 203 194 188 197 197 197 189 184 184 190 187 191 188 184 182 186 188 184 182 187 182 179 183 187 179 176 176 175 173 165 163 163 163 164 165 163 150 143 139 138 131 129 122 120 120 114 111 109 109 105 102 94 87
149 110 80 327 9 37 318 139 247 73 195 161 173 70 299 39 225 241 229 15 166 168 176 196 206 210 204 202 204 202 213 212 196 205 216 211 208 203 206 206 201 201 211 206 198 186 195 194 195 196 190 185 189 190 189 192 189 187 186 188 189 184 185 185 190 185 183 185 184 178 181 176 178 168 169 167 165 166 167 163 153 149 147 144 136 131 124 122 119 120 111 114 111 107 101 92 86
115 38 124 28 5 346 284 311 343 102 241 44 156 268 267 252 239 254 300 51 122 151 188 208 220 219 219 211 211 219 227 217 209 214 217 216 214 208 212 211 204 203 203 200 187 199 196 192 193 191 194 190 193 191 186 189 190 189 190 192 187 187 188 186 191 191 183 184 183 181 181 179 180 178 169 168 166 165 166 170 159 152 153 147 138 136 133 137 133 129 131 123 122 119 115 111 107
142 210 58 122 83 239 298 248 267 132 220 41 89 198 289 275 276 279 304 232 152 189 207 212 225 233 233 225 223 223 227 213 215 216 220 220 216 214 215 213 207 207 199 194 198 200 187 192 187 193 192 194 191 194 190 190 186 185 188 192 192 190 192 192 187 187 189 186 180 184 182 181 184 178 178 170 170 168 166 163 161 160 152 147 142 144 138 141 139 139 141 127 122 115 116 116 115
46 75 288 324 152 273 297 8 159 155 316 47 85 302 238 269 278 290 292 171 164 195 214 222 227 236 237 236 230 232 232 222 232 232 225 223 215 215 212 214 207 205 204 201 199 185 194 192 188 190 188 194 196 194 192 188 186 185 187 189 190 192 193 195 191 191 184 186 187 186 184 180 184 181 178 176 171 173 170 166 162 154 155 149 143 145 144 147 146 139 143 138 131 127 122 110 100
2 92 244 226 91 246 357 245 186 193 118 357 154 219 319 319 278 289 341 83 133 208 255 254 244 238 236 233 230 231 244 252 243 236 232 224 223 216 213 212 206 206 203 194 190 187 194 192 188 189 189 194 194 196 191 188 181 186 188 188 188 188 193 195 190 190 191 187 186 192 185 177 184 184 182 180 174 175 176 165 157 157 158 153 150 153 152 151 148 142 141 145 138 137 129 121 109
245 31 168 207 155 197 267 297 300 37 118 221 31 206 237 246 286 298 314 46 85 231 246 251 251 248 243 243 240 234 232 237 233 228 229 220 222 216 215 211 209 207 204 198 190 187 192 189 190 192 190 192 192 193 192 188 188 186 184 183 185 190 194 192 190 189 195 193 189 192 189 180 185 187 183 182 175 172 171 165 155 155 153 148 151 151 149 149 151 149 141 139 138 136 135 131 124
194 195 129 256 316 186 210 159 239 96 24 192 357 228 272 269 272 288 280 306 233 247 240 242 245 247 250 247 247 242 238 238 240 227 223 218 218 217 213 211 209 204 202 196 190 192 188 190 189 196 188 191 194 189 186 184 177 188 186 171 180 193 195 192 185 195 196 193 195 190 188 188 185 185 185 180 172 166 161 158 159 161 156 151 152 151 145 149 153 156 145 139 137 137 137 132 127
180 171 171 150 135 218 226 248 281 171 160 234 207 215 247 270 286 281 281 245 223 248 266 272 262 256 254 250 253 250 239 242 244 235 223 219 215 209 207 206 205 199 193 184 186 185 190 189 191 193 195 188 181 178 170 181 177 183 188 188 203 208 196 191 198 196 191 198 194 190 189 189 189 187 186 185 178 172 168 167 166 167 159 154 155 156 158 161 162 160 149 143 136 120 117 129 130
114 91 99 172 152 269 274 297 283 74 88 241 235 256 265 272 265 267 271 287 232 258 262 255 252 249 246 246 245 246 240 239 249 241 240 225 219 214 213 199 202 194 188 180 182 189 190 189 180 196 194 177 174 177 183 181 189 192 203 201 207 190 192 195 198 200 197 198 193 191 191 191 191 192 188 184 181 176 173 168 164 169 164 162 164 170 169 165 158 149 147 155 145 137 137 146 139
127 124 116 110 115 157 245 182 334 325 141 295 8 301 265 257 265 267 272 292 261 235 244 253 251 245 243 240 248 246 242 284 280 275 251 234 218 205 196 194 183 182 205 186 189 193 188 179 188 191 176 187 192 189 186 191 195 200 195 202 186 165 179 187 203 205 201 196 195 194 192 189 188 188 184 182 175 169 165 168 171 170 168 168 167 161 153 153 156 155 153 145 169 150 152 161 162
44 134 149 95 3 225 304 284 322 308 81 264 358 327 272 261 258 262 254 248 245 231 219 237 240 253 247 242 245 253 261 253 256 253 261 238 215 204 190 200 202 203 193 191 192 177 177 181 191 185 187 188 197 191 178 195 192 167 170 162 167 152 88 156 189 196 186 196 202 201 197 192 183 180 181 179 172 176 173 168 174 172 174 164 155 154 155 162 170 165 165 158 154 170 146 170 174
105 87 92 212 231 103 292 284 341 360 91 289 337 318 286 271 256 253 253 243 258 256 236 242 233 241 245 239 232 240 244 252 248 241 240 244 205 199 199 207 209 196 178 183 179 184 184 188 188 186 188 190 188 189 182 154 119 92 74 106 88 107 177 112 79 99 183 204 212 208 212 198 188 177 175 181 186 174 174 178 171 170 176 178 170 162 165 169 169 170 168 164 153 154 172 179 196
4 118 126 130 165 207 147 207 182 329 36 58 350 301 292 327 334 325 288 309 284 278 263 258 256 242 253 282 282 228 237 232 242 251 255 229 186 198 202 207 172 186 190 190 188 187 187 192 192 187 183 185 181 169 161 138 117 93 80 59 64 71 45 69 112 227 207 210 213 211 213 201 204 178 179 176 179 191 182 177 180 176 173 178 177 173 171 173 173 174 172 166 182 164 157 171 200
348 230 166 177 161 130 198 7 76 17 355 326 36 344 301 294 297 250 275 324 303 252 349 284 252 252 253 255 252 258 251 233 229 236 237 222 212 218 223 179 182 196 198 202 192 189 180 189 183 180 175 175 171 164 158 154 163 161 153 153 174 190 210 187 207 208 201 206 215 194 210 209 204 199 186 187 184 178 192 188 175 171 176 176 181 178 170 163 173 178 178 175 174 186 169 165 185
114 240 157 145 135 116 116 43 68 349 175 320 49 126 273 308 266 286 285 289 284 300 294 273 277 259 235 243 271 272 256 257 249 273 263 209 224 212 217 203 199 197 210 179 179 186 187 182 180 175 176 177 170 170 167 164 170 181 187 193 195 199 207 223 210 186 188 220 208 203 213 218 215 205 207 195 191 187 184 184 187 183 175 174 175 174 177 178 176 183 179 181 181 170 170 175 183
190 233 121 112 103 112 146 108 122 210 253 299 37 111 215 302 280 222 285 311 290 298 284 273 261 264 258 216 230 242 250 248 237 235 231 225 213 199 201 203 195 205 179 162 180 183 187 184 173 177 178 180 182 171 176 180 181 186 191 201 201 206 207 210 188 202 179 177 195 212 218 223 217 218 214 207 195 190 186 186 184 183 183 175 170 184 186 182 177 182 185 180 169 183 188 184 182
216 190 137 152 140 148 125 93 112 56 40 285 330 280 272 252 266 296 307 301 303 274 268 273 277 267 276 281 253 251 248 229 209 220 223 213 209 209 205 202 206 170 170 184 189 189 186 179 176 174 182 181 183 179 178 187 187 184 190 190 206 214 202 207 184 183 174 176 193 205 211 219 223 223 222 208 200 194 189 185 183 184 182 182 182 181 188 187 181 176 181 180 190 194 196 196 178
263 134 90 84 76 69 93 100 89 345 53 268 245 183 222 273 279 335 344 242 261 261 264 264 267 290 289 260 260 254 270 268 241 237 237 229 220 212 204 178 167 202 194 187 183 171 179 173 180 181 191 184 180 181 182 186 185 175 185 193 202 205 193 194 175 191 191 177 200 203 209 214 215 220 226 221 202 201 193 188 185 184 184 181 185 188 181 186 192 188 187 188 188 188 192 198 198
128 88 73 22 38 30 26 57 86 59 282 251 224 212 167 284 269 226 165 211 200 254 290 283 305 303 290 248 242 305 326 305 221 239 250 251 274 219 165 184 199 191 190 183 187 185 181 183 185 192 194 181 179 183 181 187 186 183 192 194 200 201 196 187 189 202 192 189 205 208 208 216 210 215 212 232 215 202 198 192 189 190 186 183 185 188 190 191 192 190 190 191 190 192 188 197 204
119 90 118 51 343 15 31 348 36 149 269 264 280 222 110 203 289 284 242 270 241 229 254 294 316 302 278 291 274 253 252 190 199 163 80 57 78 27 172 201 196 199 186 196 199 192 191 192 187 193 191 186 184 182 184 189 187 193 198 195 202 203 190 194 200 202 195 199 203 210 210 212 218 214 210 219 220 204 196 195 193 188 189 185 190 192 190 190 187 184 187 194 194 193 190 201 195
80 85 61 115 252 34 290 16 245 220 215 269 344 241 333 245 218 262 283 265 260 215 220 246 294 297 284 277 276 265 270 285 235 165 129 158 190 202 214 216 191 198 202 198 200 197 196 195 193 192 202 188 187 182 189 190 193 198 197 200 206 198 199 201 205 208 198 202 199 204 196 211 211 217 217 216 218 202 195 192 190 191 191 192 189 187 189 185 181 182 186 189 189 194 198 192 194
110 140 139 102 134 132 249 277 239 306 292 269 330 17 259 269 275 226 237 247 225 217 235 250 239 243 247 252 264 260 270 264 254 222 227 222 212 214 226 219 200 198 207 206 203 198 196 196 197 202 209 187 187 190 193 195 204 203 201 203 202 194 204 201 207 206 202 201 195 199 197 202 211 218 218 220 209 205 200 197 191 193 193 188 188 190 187 186 184 186 187 192 196 199 195 195 203
207 113 147 178 145 157 205 197 214 222 215 288 285 63 232 113 253 297 247 269 306 299 300 281 267 256 269 269 284 288 267 255 246 235 225 224 231 220 219 224 214 209 212 212 207 200 186 196 196 210 210 199 194 198 196 205 207 207 207 207 203 199 204 203 209 205 196 196 199 199 199 198 209 216 219 219 211 208 205 196 194 194 192 191 190 190 188 186 188 189 192 196 199 196 196 192 198
98 151 80 88 228 144 134 209 154 240 335 342 212 215 189 175 270 291 257 282 285 287 284 322 294 290 301 318 273 236 237 246 236 237 244 249 241 240 236 229 225 223 220 217 209 194 195 204 202 210 211 200 200 200 208 208 212 210 211 209 210 205 205 205 209 205 204 195 199 200 202 201 207 212 215 211 214 206 205 202 197 199 194 193 192 192 187 186 186 188 191 192 197 195 194 196 200
227 112 203 210 169 107 88 56 27 104 32 258 153 299 277 304 307 260 283 290 281 312 307 331 297 256 271 264 268 208 214 227 232 229 227 235 240 239 224 217 225 227 224 216 206 198 202 199 203 212 217 206 202 206 208 208 212 212 218 218 215 211 207 206 206 205 203 199 201 203 200 200 203 205 210 210 212 210 212 207 201 200 198 194 193 194 190 190 187 189 192 193 198 197 197 202 201
99 173 234 192 130 114 134 215 346 57 200 268 88 243 294 36 283 318 3 271 261 276 275 286 294 294 324 309 279 328 245 219 221 229 231 235 236 235 226 226 224 223 219 214 210 205 207 204 202 208 210 213 211 205 209 205 206 213 217 220 222 219 217 214 207 204 197 197 204 203 204 201 202 204 205 207 207 209 212 212 210 205 200 194 194 192 192 191 189 195 197 200 203 196 200 203 202
143 196 198 112 248 221 304 90 255 134 267 270 292 269 270 201 246 353 359 169 224 243 271 302 304 310 273 262 284 305 282 293 254 221 230 240 233 227 217 221 226 230 225 214 207 203 208 210 210 207 212 213 210 207 208 212 209 211 212 216 217 223 226 227 221 207 194 200 203 202 204 206 201 201 200 200 202 209 211 213 212 207 202 200 195 195 194 194 194 199 202 204 202 198 202 203 200
42 70 98 121 105 176 133 200 175 127 238 53 288 36 261 178 215 192 223 222 217 230 283 284 258 250 257 267 276 277 294 277 278 262 237 230 238 234 220 215 217 220 221 220 209 205 211 209 207 215 221 219 218 215 207 215 213 213 219 216 224 224 223 223 223 216 210 205 203 200 203 203 201 194 201 197 201 204 204 209 211 208 204 202 198 198 194 193 194 203 200 202 202 197 204 205 201
143 133 198 177 360 233 114 52 137 173 174 183 256 302 260 256 199 167 199 207 211 200 223 234 251 263 261 262 264 267 259 261 262 263 273 262 246 242 242 240 240 240 231 226 220 216 213 200 214 209 212 218 221 218 207 218 204 218 218 220 220 219 224 220 225 223 223 218 207 201 204 202 191 198 190 198 201 202 203 207 207 210 206 201 199 197 196 192 193 200 205 204 197 196 200 202 190
178 177 197 182 132 147 155 256 26 109 126 234 137 259 272 250 192 186 185 217 212 221 215 250 267 267 272 264 252 255 285 265 262 265 258 269 262 267 275 269 254 237 237 224 223 231 224 215 209 202 215 225 220 217 211 210 207 213 218 221 221 220 220 220 222 222 228 227 219 209 201 195 203 199 188 199 201 200 203 204 207 211 212 207 204 199 192 190 195 196 198 200 195 195 197 193 185